QPF
0.01 0.01 0.01 0.01 0.01 0.03 0.03 0.03 0.03 0.02 0.03 0.02 0.02 0.01 0.01 0.01 0.02 0.02 0.01 0.01 0.03 0.06 0.06 0.09 0.14 0.15 0.14 0.16 0.15 0.12 0.08 0.06 0.04 0.04 0.04 0.05 0.06 0.07 0.07 0.10 0.14 0.15 0.13 0.11 0.09 0.09 0.11 0.12 0.11
0.01 0.01 0.02 0.02 0.03 0.03 0.02 0.02 0.02 0.02 0.02 0.02 0.01 0.01 0.01 0.01 0.01 0.01 0.02 0.02 0.05 0.07 0.06 0.09 0.19 0.21 0.22 0.20 0.17 0.11 0.07 0.06 0.04 0.04 0.04 0.05 0.05 0.05 0.05 0.07 0.10 0.10 0.10 0.11 0.10 0.11 0.13 0.12 0.10
0.01 0.02 0.03 0.04 0.04 0.04 0.03 0.02 0.02 0.02 0.01 0.01 0.01 0.01 0.01 0.02 0.02 0.02 0.03 0.03 0.05 0.06 0.07 0.13 0.22 0.27 0.31 0.30 0.20 0.12 0.07 0.07 0.06 0.05 0.06 0.06 0.06 0.05 0.06 0.07 0.07 0.07 0.08 0.10 0.09 0.10 0.10 0.11 0.12
0.01 0.02 0.03 0.04 0.03 0.03 0.03 0.02 0.02 0.02 0.01 0.00 0.01 0.01 0.01 0.03 0.03 0.03 0.02 0.04 0.06 0.05 0.09 0.17 0.16 0.17 0.26 0.30 0.22 0.11 0.08 0.09 0.08 0.06 0.05 0.05 0.07 0.07 0.07 0.06 0.05 0.06 0.07 0.08 0.09 0.10 0.10 0.10 0.12
0.00 0.01 0.01 0.02 0.03 0.03 0.03 0.02 0.01 0.01 0.01 0.01 0.01 0.01 0.02 0.03 0.03 0.02 0.02 0.05 0.05 0.05 0.12 0.20 0.12 0.12 0.19 0.26 0.19 0.11 0.08 0.08 0.07 0.05 0.03 0.04 0.05 0.07 0.07 0.08 0.08 0.08 0.09 0.08 0.08 0.09 0.11 0.11 0.12
0.01 0.01 0.01 0.01 0.02 0.02 0.01 0.01 0.00 0.01 0.01 0.02 0.01 0.01 0.03 0.04 0.02 0.01 0.02 0.06 0.06 0.07 0.12 0.19 0.16 0.16 0.22 0.24 0.16 0.12 0.10 0.09 0.08 0.06 0.05 0.06 0.05 0.05 0.06 0.07 0.08 0.09 0.09 0.10 0.10 0.11 0.13 0.12 0.13
0.00 0.01 0.01 0.01 0.01 0.01 0.02 0.01 0.00 0.00 0.01 0.01 0.01 0.01 0.03 0.03 0.02 0.02 0.04 0.06 0.07 0.06 0.08 0.14 0.16 0.15 0.15 0.16 0.16 0.13 0.11 0.10 0.09 0.08 0.07 0.07 0.06 0.06 0.08 0.08 0.09 0.09 0.10 0.11 0.10 0.10 0.11 0.12 0.13
0.00 0.00 0.01 0.01 0.02 0.01 0.01 0.01 0.01 0.01 0.00 0.00 0.01 0.02 0.03 0.03 0.02 0.02 0.03 0.04 0.06 0.07 0.08 0.10 0.11 0.11 0.11 0.13 0.15 0.16 0.16 0.13 0.09 0.08 0.06 0.05 0.05 0.06 0.08 0.08 0.07 0.07 0.08 0.07 0.07 0.08 0.09 0.11 0.13
0.00 0.01 0.01 0.01 0.01 0.01 0.01 0.01 0.01 0.02 0.01 0.00 0.01 0.01 0.01 0.02 0.01 0.01 0.03 0.04 0.07 0.07 0.09 0.11 0.12 0.12 0.12 0.11 0.12 0.17 0.18 0.12 0.10 0.10 0.07 0.06 0.06 0.07 0.12 0.07 0.06 0.05 0.05 0.05 0.07 0.08 0.08 0.07 0.09
0.00 0.01 0.01 0.00 0.00 0.01 0.01 0.01 0.01 0.02 0.01 0.00 0.00 0.01 0.01 0.01 0.01 0.00 0.01 0.03 0.06 0.07 0.08 0.08 0.10 0.11 0.11 0.12 0.13 0.15 0.11 0.10 0.08 0.08 0.05 0.06 0.05 0.10 0.12 0.05 0.06 0.05 0.04 0.06 0.08 0.07 0.06 0.07 0.08
0.00 0.00 0.00 0.00 0.00 0.00 0.01 0.02 0.03 0.02 0.01 0.01 0.00 0.01 0.01 0.01 0.01 0.00 0.01 0.02 0.05 0.06 0.07 0.07 0.07 0.07 0.08 0.11 0.10 0.10 0.08 0.06 0.05 0.05 0.04 0.04 0.04 0.09 0.13 0.14 0.12 0.07 0.05 0.06 0.07 0.07 0.07 0.08 0.11
0.00 0.00 0.00 0.00 0.00 0.00 0.00 0.00 0.01 0.01 0.01 0.01 0.00 0.01 0.01 0.01 0.01 0.01 0.02 0.03 0.05 0.05 0.06 0.07 0.07 0.06 0.06 0.08 0.10 0.08 0.05 0.04 0.04 0.03 0.02 0.02 0.02 0.06 0.10 0.13 0.11 0.07 0.04 0.05 0.06 0.07 0.07 0.08 0.10
0.00 0.00 0.00 0.00 0.00 0.00 0.00 0.00 0.00 0.00 0.00 0.01 0.00 0.01 0.01 0.02 0.03 0.02 0.02 0.02 0.03 0.04 0.05 0.06 0.05 0.05 0.06 0.07 0.08 0.06 0.05 0.04 0.03 0.03 0.03 0.02 0.03 0.04 0.07 0.09 0.07 0.05 0.04 0.05 0.06 0.06 0.06 0.08 0.07
0.00 0.00 0.00 0.00 0.00 0.00 0.00 0.00 0.00 0.00 0.00 0.01 0.01 0.02 0.02 0.02 0.04 0.04 0.02 0.02 0.03 0.03 0.04 0.04 0.04 0.05 0.04 0.04 0.04 0.05 0.05 0.03 0.02 0.02 0.03 0.02 0.03 0.04 0.05 0.05 0.05 0.05 0.05 0.05 0.06 0.05 0.05 0.06 0.06
0.00 0.00 0.01 0.00 0.00 0.00 0.00 0.00 0.00 0.00 0.01 0.01 0.01 0.01 0.02 0.02 0.04 0.06 0.04 0.03 0.02 0.03 0.03 0.03 0.03 0.03 0.03 0.02 0.02 0.03 0.02 0.02 0.02 0.02 0.03 0.03 0.03 0.04 0.04 0.04 0.03 0.04 0.06 0.06 0.06 0.05 0.05 0.06 0.06
0.00 0.00 0.01 0.00 0.00 0.00 0.00 0.00 0.00 0.00 0.01 0.03 0.03 0.01 0.01 0.01 0.04 0.03 0.03 0.05 0.03 0.02 0.03 0.02 0.01 0.01 0.01 0.01 0.02 0.02 0.02 0.03 0.03 0.03 0.04 0.05 0.04 0.03 0.04 0.03 0.03 0.04 0.09 0.10 0.08 0.06 0.07 0.08 0.08
0.01 0.00 0.01 0.00 0.00 0.00 0.00 0.00 0.00 0.01 0.02 0.02 0.01 0.03 0.02 0.01 0.02 0.02 0.04 0.03 0.02 0.02 0.03 0.02 0.01 0.01 0.02 0.02 0.02 0.02 0.02 0.03 0.03 0.03 0.04 0.06 0.05 0.03 0.04 0.04 0.04 0.04 0.09 0.16 0.13 0.08 0.08 0.09 0.10
0.01 0.01 0.01 0.00 0.00 0.00 0.00 0.00 0.00 0.02 0.04 0.02 0.04 0.04 0.02 0.02 0.01 0.03 0.04 0.02 0.02 0.02 0.03 0.03 0.02 0.03 0.03 0.04 0.04 0.03 0.02 0.03 0.02 0.03 0.04 0.04 0.04 0.03 0.05 0.04 0.04 0.05 0.09 0.16 0.17 0.13 0.11 0.11 0.11
0.01 0.01 0.00 0.00 0.00 0.00 0.00 0.00 0.01 0.02 0.04 0.04 0.04 0.03 0.02 0.02 0.02 0.03 0.03 0.03 0.02 0.03 0.05 0.04 0.04 0.04 0.04 0.05 0.05 0.04 0.04 0.03 0.02 0.02 0.03 0.03 0.03 0.02 0.04 0.04 0.05 0.06 0.09 0.12 0.13 0.13 0.12 0.12 0.11
0.01 0.01 0.00 0.00 0.00 0.00 0.00 0.00 0.00 0.01 0.02 0.03 0.03 0.02 0.02 0.02 0.02 0.02 0.03 0.02 0.02 0.03 0.03 0.03 0.03 0.03 0.04 0.04 0.05 0.05 0.03 0.02 0.02 0.03 0.04 0.03 0.03 0.02 0.03 0.05 0.05 0.05 0.07 0.08 0.09 0.09 0.09 0.08 0.08
0.01 0.01 0.00 0.00 0.00 0.00 0.00 0.00 0.00 0.00 0.01 0.03 0.03 0.03 0.02 0.02 0.01 0.01 0.01 0.02 0.02 0.02 0.02 0.02 0.02 0.02 0.02 0.03 0.02 0.02 0.02 0.02 0.02 0.04 0.04 0.03 0.02 0.02 0.03 0.04 0.04 0.04 0.05 0.06 0.07 0.09 0.07 0.07 0.08
0.01 0.00 0.00 0.00 0.01 0.01 0.00 0.01 0.00 0.00 0.03 0.06 0.06 0.05 0.02 0.02 0.02 0.02 0.02 0.02 0.02 0.02 0.01 0.02 0.02 0.02 0.02 0.02 0.03 0.03 0.03 0.03 0.03 0.03 0.04 0.03 0.02 0.02 0.02 0.03 0.04 0.04 0.05 0.05 0.05 0.07 0.10 0.10 0.09
0.01 0.00 0.00 0.00 0.01 0.01 0.00 0.00 0.00 0.00 0.03 0.05 0.05 0.04 0.04 0.05 0.03 0.02 0.02 0.02 0.02 0.01 0.01 0.01 0.01 0.01 0.02 0.02 0.03 0.03 0.03 0.02 0.02 0.02 0.03 0.03 0.03 0.03 0.03 0.04 0.05 0.05 0.04 0.04 0.05 0.06 0.08 0.07 0.07
0.00 0.00 0.00 0.00 0.00 0.01 0.00 0.00 0.01 0.00 0.01 0.02 0.02 0.03 0.03 0.04 0.03 0.02 0.02 0.02 0.03 0.02 0.01 0.01 0.01 0.02 0.03 0.03 0.02 0.02 0.02 0.02 0.01 0.02 0.03 0.03 0.04 0.04 0.03 0.03 0.04 0.04 0.04 0.04 0.05 0.07 0.07 0.06 0.06
0.00 0.00 0.01 0.01 0.01 0.01 0.00 0.00 0.00 0.00 0.00 0.01 0.02 0.01 0.01 0.03 0.02 0.02 0.02 0.02 0.04 0.03 0.02 0.02 0.02 0.02 0.02 0.02 0.02 0.01 0.02 0.02 0.02 0.02 0.03 0.03 0.03 0.03 0.03 0.03 0.04 0.03 0.03 0.04 0.05 0.06 0.06 0.06 0.06
0.00 0.00 0.01 0.01 0.01 0.00 0.00 0.00 0.00 0.00 0.00 0.01 0.01 0.01 0.01 0.03 0.02 0.03 0.02 0.02 0.03 0.03 0.03 0.03 0.02 0.01 0.01 0.02 0.02 0.01 0.01 0.02 0.03 0.03 0.02 0.02 0.02 0.02 0.02 0.04 0.04 0.03 0.03 0.03 0.04 0.05 0.05 0.05 0.06
0.01 0.01 0.00 0.00 0.00 0.01 0.01 0.00 0.00 0.00 0.00 0.00 0.00 0.01 0.01 0.03 0.02 0.02 0.01 0.01 0.02 0.02 0.03 0.02 0.02 0.01 0.01 0.01 0.02 0.01 0.01 0.02 0.04 0.04 0.03 0.02 0.02 0.02 0.02 0.03 0.04 0.03 0.03 0.03 0.04 0.04 0.04 0.04 0.04
0.01 0.01 0.01 0.01 0.01 0.01 0.01 0.01 0.01 0.00 0.00 0.01 0.01 0.02 0.03 0.05 0.04 0.01 0.01 0.02 0.03 0.02 0.02 0.01 0.01 0.02 0.02 0.03 0.03 0.02 0.02 0.02 0.03 0.03 0.03 0.02 0.01 0.02 0.02 0.03 0.04 0.04 0.03 0.04 0.03 0.03 0.03 0.03 0.03
0.01 0.01 0.01 0.01 0.01 0.01 0.01 0.01 0.01 0.00 0.00 0.00 0.01 0.01 0.01 0.01 0.02 0.02 0.02 0.02 0.02 0.02 0.02 0.02 0.03 0.03 0.04 0.05 0.05 0.02 0.02 0.01 0.01 0.02 0.02 0.02 0.02 0.02 0.04 0.05 0.04 0.04 0.03 0.03 0.04 0.03 0.03 0.03 0.04
0.01 0.01 0.01 0.02 0.01 0.01 0.01 0.00 0.00 0.01 0.01 0.00 0.00 0.01 0.00 0.01 0.01 0.02 0.03 0.03 0.03 0.03 0.03 0.02 0.02 0.03 0.03 0.04 0.04 0.02 0.01 0.01 0.01 0.02 0.02 0.03 0.04 0.04 0.03 0.03 0.02 0.03 0.03 0.04 0.03 0.03 0.03 0.02 0.02
MSLP
1009.95 1010.51 1011.05 1011.45 1011.62 1011.51 1011.13 1010.56 1009.91 1009.32 1008.90 1008.73 1008.81 1009.11 1009.52 1009.93 1010.23 1010.35 1010.28 1010.05 1009.75 1009.47 1009.32 1009.36 1009.62 1010.06 1010.61 1011.20 1011.76 1012.23 1012.62 1012.92 1013.19 1013.46 1013.76 1014.11 1014.49 1014.85 1015.18 1015.43 1015.59 1015.68 1015.72 1015.76 1015.82 1015.92 1016.04 1016.17 1016.27
1010.03 1010.65 1011.19 1011.55 1011.64 1011.44 1010.99 1010.37 1009.70 1009.14 1008.78 1008.69 1008.86 1009.21 1009.66 1010.07 1010.35 1010.42 1010.29 1010.03 1009.72 1009.47 1009.38 1009.51 1009.87 1010.41 1011.05 1011.71 1012.31 1012.81 1013.19 1013.48 1013.71 1013.94 1014.18 1014.47 1014.77 1015.06 1015.32 1015.51 1015.64 1015.71 1015.76 1015.82 1015.90 1016.02 1016.15 1016.26 1016.32
1010.24 1010.89 1011.41 1011.71 1011.72 1011.44 1010.92 1010.26 1009.60 1009.08 1008.78 1008.75 1008.97 1009.37 1009.81 1010.20 1010.42 1010.44 1010.27 1009.99 1009.70 1009.50 1009.50 1009.73 1010.19 1010.83 1011.55 1012.28 1012.91 1013.43 1013.80 1014.07 1014.26 1014.44 1014.63 1014.85 1015.08 1015.30 1015.49 1015.63 1015.72 1015.79 1015.84 1015.91 1016.02 1016.14 1016.26 1016.34 1016.33
1010.52 1011.16 1011.64 1011.87 1011.80 1011.45 1010.88 1010.22 1009.58 1009.11 1008.87 1008.90 1009.15 1009.55 1009.97 1010.31 1010.49 1010.46 1010.28 1010.01 1009.76 1009.64 1009.73 1010.06 1010.62 1011.34 1012.12 1012.87 1013.52 1014.03 1014.39 1014.63 1014.79 1014.93 1015.07 1015.24 1015.41 1015.58 1015.72 1015.83 1015.89 1015.95 1016.01 1016.09 1016.19 1016.30 1016.39 1016.41 1016.33
1010.76 1011.37 1011.78 1011.93 1011.80 1011.40 1010.83 1010.18 1009.60 1009.19 1009.02 1009.09 1009.37 1009.75 1010.14 1010.44 1010.57 1010.53 1010.35 1010.12 1009.95 1009.92 1010.11 1010.53 1011.16 1011.92 1012.72 1013.46 1014.08 1014.56 1014.88 1015.09 1015.23 1015.35 1015.47 1015.61 1015.76 1015.90 1016.01 1016.09 1016.14 1016.19 1016.24 1016.31 1016.40 1016.47 1016.51 1016.46 1016.31
1010.88 1011.41 1011.74 1011.82 1011.63 1011.23 1010.68 1010.10 1009.60 1009.28 1009.18 1009.30 1009.59 1009.97 1010.33 1010.58 1010.69 1010.65 1010.51 1010.35 1010.27 1010.34 1010.62 1011.11 1011.78 1012.54 1013.30 1013.99 1014.55 1014.96 1015.24 1015.42 1015.55 1015.66 1015.79 1015.92 1016.07 1016.20 1016.30 1016.37 1016.41 1016.44 1016.48 1016.52 1016.58 1016.61 1016.58 1016.47 1016.24
1010.78 1011.21 1011.46 1011.48 1011.27 1010.90 1010.42 1009.94 1009.56 1009.35 1009.34 1009.52 1009.82 1010.18 1010.52 1010.75 1010.85 1010.84 1010.75 1010.68 1010.69 1010.86 1011.21 1011.74 1012.40 1013.12 1013.81 1014.41 1014.88 1015.22 1015.44 1015.59 1015.72 1015.84 1015.98 1016.14 1016.30 1016.43 1016.53 1016.59 1016.62 1016.63 1016.63 1016.65 1016.66 1016.64 1016.56 1016.39 1016.11
1010.47 1010.79 1010.95 1010.93 1010.73 1010.42 1010.05 1009.71 1009.48 1009.39 1009.48 1009.72 1010.05 1010.40 1010.71 1010.93 1011.04 1011.06 1011.04 1011.05 1011.16 1011.40 1011.80 1012.34 1012.97 1013.61 1014.20 1014.70 1015.07 1015.33 1015.50 1015.63 1015.75 1015.90 1016.06 1016.25 1016.42 1016.57 1016.66 1016.70 1016.70 1016.68 1016.65 1016.63 1016.59 1016.53 1016.40 1016.20 1015.92
1010.00 1010.21 1010.30 1010.25 1010.10 1009.88 1009.64 1009.46 1009.38 1009.44 1009.62 1009.92 1010.27 1010.62 1010.92 1011.13 1011.25 1011.31 1011.35 1011.43 1011.61 1011.91 1012.33 1012.85 1013.42 1013.98 1014.47 1014.86 1015.14 1015.32 1015.45 1015.57 1015.70 1015.87 1016.06 1016.26 1016.45 1016.59 1016.66 1016.68 1016.65 1016.59 1016.52 1016.45 1016.38 1016.29 1016.15 1015.95 1015.68
1009.47 1009.59 1009.62 1009.58 1009.48 1009.36 1009.27 1009.25 1009.32 1009.50 1009.78 1010.12 1010.49 1010.84 1011.12 1011.33 1011.46 1011.55 1011.64 1011.77 1012.00 1012.32 1012.74 1013.23 1013.74 1014.21 1014.60 1014.90 1015.11 1015.25 1015.36 1015.47 1015.61 1015.80 1016.01 1016.22 1016.40 1016.52 1016.57 1016.55 1016.47 1016.37 1016.27 1016.17 1016.09 1015.99 1015.86 1015.69 1015.47
1009.01 1009.06 1009.06 1009.03 1009.00 1008.99 1009.03 1009.15 1009.35 1009.63 1009.97 1010.35 1010.72 1011.06 1011.32 1011.52 1011.66 1011.77 1011.88 1012.05 1012.29 1012.62 1013.02 1013.46 1013.91 1014.30 1014.63 1014.87 1015.03 1015.15 1015.26 1015.38 1015.54 1015.74 1015.96 1016.17 1016.33 1016.42 1016.43 1016.37 1016.25 1016.12 1015.99 1015.88 1015.79 1015.72 1015.63 1015.51 1015.36
1008.74 1008.75 1008.73 1008.73 1008.76 1008.83 1008.98 1009.19 1009.48 1009.82 1010.20 1010.59 1010.95 1011.26 1011.51 1011.70 1011.83 1011.95 1012.08 1012.25 1012.49 1012.80 1013.17 1013.57 1013.95 1014.29 1014.57 1014.79 1014.94 1015.06 1015.19 1015.34 1015.52 1015.73 1015.94 1016.14 1016.27 1016.33 1016.30 1016.20 1016.06 1015.90 1015.76 1015.66 1015.60 1015.56 1015.53 1015.48 1015.41
1008.70 1008.69 1008.68 1008.70 1008.77 1008.91 1009.12 1009.39 1009.71 1010.07 1010.45 1010.82 1011.15 1011.43 1011.66 1011.83 1011.97 1012.08 1012.21 1012.38 1012.61 1012.89 1013.21 1013.56 1013.90 1014.21 1014.47 1014.68 1014.85 1015.00 1015.16 1015.33 1015.53 1015.75 1015.96 1016.13 1016.24 1016.27 1016.22 1016.10 1015.95 1015.79 1015.67 1015.59 1015.57 1015.58 1015.62 1015.65 1015.66
1008.88 1008.88 1008.88 1008.93 1009.03 1009.19 1009.42 1009.69 1010.00 1010.34 1010.67 1010.99 1011.28 1011.54 1011.74 1011.91 1012.04 1012.16 1012.30 1012.45 1012.66 1012.90 1013.19 1013.49 1013.81 1014.10 1014.36 1014.58 1014.78 1014.96 1015.15 1015.34 1015.56 1015.77 1015.97 1016.13 1016.23 1016.25 1016.20 1016.09 1015.95 1015.82 1015.73 1015.69 1015.71 1015.79 1015.89 1016.00 1016.09
1009.20 1009.20 1009.23 1009.29 1009.41 1009.58 1009.79 1010.03 1010.29 1010.56 1010.82 1011.08 1011.32 1011.54 1011.73 1011.90 1012.05 1012.18 1012.32 1012.47 1012.65 1012.87 1013.12 1013.40 1013.68 1013.97 1014.23 1014.48 1014.70 1014.92 1015.12 1015.34 1015.55 1015.76 1015.95 1016.10 1016.19 1016.22 1016.20 1016.12 1016.03 1015.94 1015.90 1015.91 1015.99 1016.12 1016.28 1016.45 1016.61
1009.52 1009.55 1009.60 1009.68 1009.81 1009.96 1010.14 1010.32 1010.50 1010.68 1010.86 1011.05 1011.23 1011.42 1011.61 1011.79 1011.97 1012.13 1012.28 1012.44 1012.62 1012.82 1013.04 1013.29 1013.57 1013.84 1014.12 1014.38 1014.63 1014.85 1015.07 1015.28 1015.48 1015.67 1015.84 1015.99 1016.09 1016.15 1016.17 1016.15 1016.12 1016.10 1016.11 1016.17 1016.29 1016.46 1016.67 1016.90 1017.11
1009.73 1009.78 1009.86 1009.98 1010.11 1010.26 1010.39 1010.51 1010.60 1010.69 1010.77 1010.88 1011.01 1011.18 1011.37 1011.58 1011.79 1011.99 1012.18 1012.37 1012.55 1012.74 1012.96 1013.20 1013.46 1013.74 1014.02 1014.29 1014.54 1014.77 1014.97 1015.16 1015.33 1015.49 1015.64 1015.78 1015.89 1015.99 1016.06 1016.11 1016.15 1016.20 1016.27 1016.38 1016.53 1016.73 1016.97 1017.23 1017.49
1009.75 1009.83 1009.96 1010.11 1010.28 1010.42 1010.52 1010.57 1010.58 1010.57 1010.57 1010.60 1010.68 1010.82 1011.02 1011.26 1011.52 1011.77 1012.01 1012.23 1012.44 1012.65 1012.87 1013.11 1013.37 1013.66 1013.94 1014.21 1014.46 1014.67 1014.85 1014.99 1015.12 1015.23 1015.35 1015.47 1015.60 1015.73 1015.86 1015.98 1016.09 1016.20 1016.32 1016.46 1016.64 1016.85 1017.10 1017.38 1017.67
1009.56 1009.69 1009.88 1010.09 1010.29 1010.45 1010.53 1010.54 1010.47 1010.37 1010.27 1010.22 1010.25 1010.37 1010.58 1010.85 1011.15 1011.47 1011.76 1012.03 1012.28 1012.52 1012.76 1013.01 1013.29 1013.59 1013.88 1014.15 1014.39 1014.58 1014.72 1014.82 1014.89 1014.95 1015.02 1015.12 1015.25 1015.40 1015.57 1015.74 1015.91 1016.08 1016.23 1016.40 1016.57 1016.78 1017.02 1017.31 1017.62
1009.23 1009.41 1009.67 1009.95 1010.22 1010.40 1010.48 1010.45 1010.31 1010.12 1009.93 1009.80 1009.76 1009.85 1010.05 1010.35 1010.70 1011.07 1011.42 1011.75 1012.05 1012.33 1012.60 1012.89 1013.19 1013.51 1013.82 1014.10 1014.34 1014.51 1014.62 1014.67 1014.68 1014.69 1014.71 1014.77 1014.88 1015.03 1015.23 1015.44 1015.65 1015.85 1016.03 1016.20 1016.37 1016.56 1016.78 1017.05 1017.37
1008.84 1009.09 1009.43 1009.80 1010.13 1010.35 1010.43 1010.35 1010.15 1009.86 1009.57 1009.35 1009.24 1009.28 1009.46 1009.76 1010.15 1010.57 1010.98 1011.37 1011.72 1012.05 1012.37 1012.69 1013.03 1013.38 1013.72 1014.03 1014.28 1014.45 1014.54 1014.56 1014.53 1014.48 1014.45 1014.46 1014.54 1014.68 1014.88 1015.10 1015.33 1015.55 1015.75 1015.92 1016.07 1016.24 1016.43 1016.68 1016.99
1008.50 1008.83 1009.26 1009.72 1010.11 1010.36 1010.42 1010.30 1010.01 1009.62 1009.22 1008.89 1008.69 1008.66 1008.81 1009.10 1009.50 1009.96 1010.42 1010.86 1011.27 1011.65 1012.01 1012.38 1012.77 1013.16 1013.54 1013.89 1014.17 1014.37 1014.47 1014.48 1014.42 1014.34 1014.26 1014.23 1014.27 1014.38 1014.56 1014.79 1015.02 1015.25 1015.45 1015.62 1015.76 1015.90 1016.07 1016.28 1016.56
1008.29 1008.71 1009.22 1009.75 1010.18 1010.44 1010.48 1010.28 1009.90 1009.40 1008.88 1008.43 1008.12 1008.01 1008.11 1008.38 1008.78 1009.25 1009.75 1010.23 1010.68 1011.10 1011.52 1011.93 1012.36 1012.80 1013.23 1013.63 1013.96 1014.20 1014.34 1014.36 1014.31 1014.21 1014.11 1014.05 1014.05 1014.13 1014.29 1014.50 1014.74 1014.97 1015.18 1015.35 1015.49 1015.61 1015.75 1015.92 1016.17
1008.22 1008.72 1009.31 1009.88 1010.33 1010.57 1010.55 1010.28 1009.78 1009.16 1008.50 1007.93 1007.52 1007.33 1007.36 1007.59 1007.98 1008.46 1008.98 1009.48 1009.97 1010.42 1010.87 1011.31 1011.78 1012.26 1012.75 1013.20 1013.59 1013.90 1014.08 1014.16 1014.13 1014.05 1013.94 1013.86 1013.84 1013.90 1014.03 1014.24 1014.47 1014.71 1014.94 1015.12 1015.27 1015.39 1015.51 1015.65 1015.85
1008.26 1008.84 1009.48 1010.06 1010.50 1010.69 1010.60 1010.22 1009.61 1008.86 1008.09 1007.40 1006.89 1006.62 1006.59 1006.78 1007.15 1007.62 1008.14 1008.66 1009.16 1009.63 1010.09 1010.55 1011.04 1011.55 1012.07 1012.57 1013.03 1013.40 1013.65 1013.79 1013.82 1013.77 1013.69 1013.61 1013.59 1013.63 1013.76 1013.95 1014.20 1014.46 1014.71 1014.92 1015.09 1015.23 1015.34 1015.46 1015.61
1008.34 1008.97 1009.62 1010.20 1010.59 1010.71 1010.53 1010.05 1009.34 1008.49 1007.62 1006.85 1006.26 1005.92 1005.84 1006.00 1006.34 1006.80 1007.31 1007.83 1008.32 1008.78 1009.23 1009.69 1010.17 1010.69 1011.23 1011.77 1012.27 1012.70 1013.03 1013.24 1013.33 1013.34 1013.30 1013.25 1013.24 1013.28 1013.41 1013.62 1013.88 1014.17 1014.46 1014.71 1014.93 1015.09 1015.22 1015.33 1015.45
1008.36 1009.01 1009.65 1010.19 1010.51 1010.55 1010.29 1009.73 1008.95 1008.03 1007.11 1006.29 1005.66 1005.29 1005.18 1005.31 1005.63 1006.07 1006.56 1007.05 1007.52 1007.96 1008.38 1008.81 1009.27 1009.76 1010.30 1010.84 1011.37 1011.85 1012.23 1012.51 1012.67 1012.75 1012.76 1012.75 1012.76 1012.83 1012.98 1013.20 1013.48 1013.81 1014.14 1014.45 1014.72 1014.93 1015.08 1015.20 1015.31
1008.27 1008.90 1009.49 1009.96 1010.20 1010.17 1009.84 1009.24 1008.43 1007.50 1006.58 1005.78 1005.16 1004.80 1004.68 1004.80 1005.10 1005.51 1005.97 1006.43 1006.86 1007.25 1007.63 1008.01 1008.41 1008.87 1009.37 1009.89 1010.42 1010.91 1011.34 1011.66 1011.89 1012.02 1012.09 1012.13 1012.18 1012.28 1012.45 1012.69 1013.01 1013.37 1013.75 1014.11 1014.43 1014.70 1014.90 1015.04 1015.15
1008.03 1008.60 1009.11 1009.48 1009.65 1009.55 1009.19 1008.59 1007.81 1006.95 1006.10 1005.37 1004.82 1004.50 1004.42 1004.54 1004.83 1005.21 1005.63 1006.04 1006.42 1006.75 1007.06 1007.38 1007.72 1008.11 1008.55 1009.03 1009.53 1010.01 1010.44 1010.79 1011.05 1011.23 1011.35 1011.44 1011.52 1011.65 1011.85 1012.12 1012.46 1012.85 1013.27 1013.68 1014.06 1014.37 1014.63 1014.81 1014.95
1007.68 1008.15 1008.54 1008.81 1008.89 1008.75 1008.39 1007.84 1007.15 1006.41 1005.70 1005.10 1004.67 1004.44 1004.41 1004.55 1004.83 1005.19 1005.56 1005.91 1006.23 1006.50 1006.74 1006.98 1007.25 1007.57 1007.93 1008.35 1008.79 1009.24 1009.64 1009.99 1010.27 1010.47 1010.62 1010.74 1010.86 1011.01 1011.22 1011.50 1011.86 1012.27 1012.72 1013.16 1013.58 1013.96 1014.26 1014.50 1014.68
Thickness
5818 5821 5821 5814 5807 5801 5792 5799 5807 5805 5805 5811 5812 5809 5804 5799 5793 5783 5804 5813 5813 5811 5808 5802 5800 5799 5797 5796 5796 5795 5795 5794 5793 5792 5790 5789 5788 5787 5786 5785 5784 5783 5782 5780 5779 5778 5777 5775 5774
5825 5824 5818 5814 5804 5792 5790 5803 5803 5805 5810 5815 5814 5811 5806 5801 5805 5804 5808 5811 5813 5812 5809 5804 5799 5798 5797 5795 5795 5794 5793 5792 5791 5790 5789 5788 5787 5786 5785 5784 5783 5782 5781 5780 5778 5777 5776 5774 5773
5826 5824 5818 5814 5802 5794 5793 5805 5807 5812 5817 5815 5810 5812 5806 5799 5805 5807 5811 5814 5814 5812 5809 5803 5799 5798 5796 5795 5793 5792 5792 5791 5790 5789 5788 5787 5786 5785 5784 5783 5782 5781 5780 5778 5777 5776 5775 5773 5772
5826 5823 5821 5810 5799 5805 5807 5811 5814 5812 5814 5816 5813 5805 5806 5809 5810 5813 5814 5815 5814 5811 5809 5803 5799 5797 5795 5794 5792 5791 5790 5789 5789 5788 5787 5785 5784 5783 5782 5781 5780 5779 5778 5777 5776 5775 5774 5772 5771
5829 5823 5812 5805 5804 5810 5817 5818 5818 5812 5809 5813 5812 5802 5798 5809 5816 5816 5814 5814 5812 5811 5809 5805 5800 5798 5795 5793 5791 5790 5789 5788 5788 5787 5786 5784 5783 5782 5780 5779 5778 5778 5777 5776 5775 5774 5773 5772 5770
5826 5824 5808 5800 5804 5813 5819 5823 5820 5814 5811 5813 5811 5803 5798 5810 5812 5813 5814 5813 5813 5810 5808 5803 5799 5796 5794 5792 5791 5789 5788 5788 5787 5786 5785 5783 5782 5781 5779 5778 5778 5777 5776 5775 5774 5773 5772 5771 5770
5823 5819 5808 5809 5807 5810 5816 5826 5820 5815 5810 5812 5816 5804 5801 5808 5813 5814 5814 5813 5812 5810 5807 5804 5801 5797 5794 5792 5790 5789 5788 5787 5786 5784 5784 5783 5781 5780 5779 5778 5777 5776 5775 5775 5774 5773 5772 5771 5770
5833 5825 5816 5814 5810 5810 5822 5826 5824 5820 5814 5822 5821 5806 5801 5808 5815 5814 5813 5811 5809 5808 5807 5805 5803 5800 5798 5795 5791 5789 5787 5786 5785 5784 5783 5782 5781 5780 5779 5778 5777 5776 5775 5774 5773 5773 5772 5771 5770
5836 5821 5813 5816 5814 5817 5827 5823 5824 5828 5821 5820 5821 5818 5817 5817 5816 5812 5808 5807 5805 5805 5806 5805 5804 5802 5800 5797 5792 5790 5788 5786 5785 5784 5782 5782 5783 5783 5781 5779 5777 5776 5775 5774 5773 5772 5771 5771 5770
5831 5818 5818 5828 5830 5828 5828 5825 5824 5821 5815 5814 5815 5818 5820 5816 5813 5809 5806 5803 5803 5802 5804 5804 5803 5802 5800 5797 5794 5792 5791 5788 5786 5785 5784 5784 5783 5782 5781 5778 5777 5775 5774 5774 5773 5772 5772 5773 5774
5830 5823 5830 5835 5839 5837 5831 5829 5831 5822 5814 5817 5816 5814 5816 5815 5813 5811 5809 5808 5806 5806 5804 5804 5803 5801 5800 5797 5795 5793 5791 5789 5787 5785 5784 5783 5783 5782 5782 5781 5779 5777 5776 5777 5775 5775 5776 5776 5774
5830 5833 5836 5838 5842 5838 5834 5833 5828 5825 5824 5831 5830 5825 5820 5815 5814 5813 5811 5809 5807 5805 5804 5805 5803 5801 5799 5797 5796 5794 5793 5791 5789 5786 5784 5784 5783 5782 5781 5780 5780 5779 5779 5778 5778 5777 5776 5774 5773
5831 5834 5840 5844 5843 5842 5839 5834 5830 5828 5834 5836 5832 5826 5822 5820 5818 5817 5816 5812 5809 5806 5805 5804 5802 5799 5796 5795 5795 5794 5792 5791 5790 5786 5784 5783 5783 5782 5781 5780 5779 5779 5779 5779 5777 5776 5775 5773 5773
5838 5839 5841 5844 5843 5843 5836 5835 5831 5828 5836 5832 5828 5824 5823 5821 5820 5817 5815 5812 5809 5807 5805 5805 5801 5799 5796 5795 5794 5793 5793 5790 5789 5787 5784 5782 5782 5781 5780 5779 5778 5779 5778 5778 5777 5776 5774 5773 5772
5843 5835 5837 5841 5842 5842 5839 5827 5829 5835 5836 5829 5827 5825 5823 5821 5820 5818 5817 5814 5812 5808 5806 5804 5802 5800 5797 5796 5795 5794 5793 5792 5789 5787 5784 5782 5782 5780 5779 5779 5778 5778 5777 5776 5775 5774 5774 5773 5772
5839 5832 5826 5837 5842 5842 5834 5817 5832 5840 5833 5828 5827 5825 5821 5820 5821 5821 5820 5817 5815 5812 5807 5805 5805 5801 5797 5795 5794 5794 5793 5790 5788 5786 5784 5782 5780 5779 5778 5778 5778 5776 5777 5776 5774 5774 5772 5771 5770
5829 5823 5824 5831 5843 5841 5834 5824 5835 5840 5834 5828 5827 5826 5823 5820 5821 5822 5822 5819 5816 5813 5809 5805 5804 5801 5798 5796 5794 5792 5790 5788 5787 5786 5784 5782 5780 5778 5778 5777 5776 5775 5775 5775 5775 5773 5770 5768 5767
5818 5823 5824 5826 5838 5839 5833 5831 5838 5840 5836 5831 5829 5827 5824 5822 5822 5824 5823 5821 5817 5813 5810 5807 5804 5801 5799 5797 5794 5792 5790 5789 5787 5785 5783 5781 5780 5778 5777 5776 5774 5774 5774 5772 5771 5768 5767 5766 5765
5827 5824 5823 5829 5841 5836 5832 5832 5837 5841 5837 5833 5830 5828 5826 5826 5828 5827 5824 5822 5818 5813 5809 5806 5803 5801 5799 5796 5794 5791 5788 5788 5786 5785 5782 5780 5779 5777 5776 5776 5774 5773 5772 5770 5770 5768 5765 5764 5764
5826 5821 5824 5831 5838 5834 5832 5833 5842 5842 5839 5838 5835 5832 5830 5829 5828 5825 5824 5822 5818 5813 5810 5807 5804 5802 5800 5797 5795 5792 5790 5788 5787 5785 5782 5780 5778 5777 5777 5774 5773 5772 5770 5768 5767 5765 5764 5763 5763
5823 5821 5822 5822 5830 5836 5830 5827 5835 5842 5844 5842 5842 5841 5839 5834 5830 5826 5824 5822 5819 5815 5812 5811 5806 5803 5800 5798 5796 5792 5789 5787 5785 5782 5781 5780 5778 5776 5774 5773 5772 5770 5770 5767 5764 5763 5761 5759 5760
5817 5831 5827 5823 5818 5822 5825 5812 5830 5838 5836 5838 5840 5841 5840 5838 5835 5830 5826 5823 5821 5818 5816 5812 5807 5803 5800 5798 5795 5791 5786 5783 5782 5781 5781 5779 5777 5775 5774 5772 5770 5769 5769 5765 5764 5763 5761 5757 5756
5824 5833 5829 5824 5820 5818 5825 5816 5828 5838 5831 5836 5841 5843 5843 5842 5838 5833 5829 5825 5824 5821 5818 5813 5807 5803 5799 5797 5794 5789 5787 5785 5784 5782 5778 5776 5776 5774 5773 5771 5769 5767 5767 5765 5762 5760 5759 5758 5756
5830 5826 5824 5823 5822 5802 5818 5813 5817 5838 5835 5839 5842 5843 5843 5842 5839 5835 5832 5828 5824 5822 5818 5813 5807 5801 5799 5795 5793 5788 5785 5782 5780 5777 5775 5775 5775 5773 5772 5770 5768 5766 5765 5763 5761 5759 5758 5756 5755
5824 5812 5800 5795 5797 5803 5822 5813 5821 5841 5845 5843 5842 5841 5842 5841 5839 5835 5830 5825 5822 5819 5816 5812 5806 5801 5798 5794 5791 5788 5784 5781 5778 5777 5775 5773 5773 5772 5769 5769 5766 5765 5762 5760 5759 5756 5756 5754 5751
5818 5816 5795 5782 5789 5807 5813 5809 5829 5844 5846 5847 5846 5844 5841 5840 5840 5835 5831 5826 5822 5818 5815 5811 5806 5801 5797 5794 5790 5787 5784 5783 5780 5776 5776 5773 5772 5771 5769 5766 5764 5762 5760 5759 5756 5756 5754 5751 5750
5812 5814 5827 5812 5805 5800 5809 5818 5830 5840 5838 5839 5839 5838 5836 5836 5836 5833 5830 5826 5822 5818 5814 5810 5804 5800 5796 5793 5789 5785 5783 5780 5778 5775 5773 5772 5770 5769 5765 5763 5761 5759 5756 5754 5753 5752 5749 5748 5747
5823 5821 5813 5803 5783 5782 5799 5806 5816 5822 5827 5831 5831 5830 5831 5833 5833 5831 5829 5825 5821 5818 5813 5809 5804 5799 5795 5792 5788 5786 5782 5779 5776 5773 5769 5768 5766 5764 5761 5759 5757 5755 5752 5750 5748 5747 5745 5743 5741
5807 5807 5806 5805 5803 5786 5784 5803 5829 5825 5828 5827 5828 5829 5829 5829 5829 5827 5825 5822 5819 5815 5809 5805 5800 5796 5792 5789 5786 5783 5780 5779 5775 5771 5767 5764 5762 5760 5757 5755 5753 5751 5749 5747 5744 5743 5740 5738 5736
5813 5810 5806 5792 5788 5794 5792 5805 5832 5831 5831 5829 5827 5826 5827 5827 5827 5824 5821 5817 5813 5809 5805 5801 5797 5793 5790 5787 5782 5779 5776 5774 5771 5768 5764 5761 5758 5756 5754 5752 5749 5747 5745 5743 5740 5738 5736 5733 5731